Regional Weather Roundup
Issued by NWS

Home | Current Version | Previous Version | Graphics & Text | Print | Product List | Glossary On
Versions: 1 2 3 4 5 6 7 8 9 10 11 12 13 14 15 16 17 18 19 20 21 22 23 24 25 26 27 28 29 30 31 32 33 34 35 36 37 38 39 40 41 42 43 44 45 46 47 48 49 50
000
ASUS44 KMEG 050400
RWRTN
TENNESSEE HOURLY STATE WEATHER ROUNDUP
NATIONAL WEATHER SERVICE MEMPHIS TN
1100 PM CDT SAT JUL 04 2015

TNZ002-004-019-021-049-052-054-088>092-050500-
WEST TENNESSEE

CITY           SKY/WX    TMP DP  RH WIND       PRES   REMARKS
MEMPHIS INTL   MOCLDY    75  70  84 S5        30.02S
NWS MEMPHIS      N/A     71 N/A N/A MISG        N/A
JACKSON        CLOUDY    71  69  93 CALM      30.04R
DYERSBURG        N/A    N/A N/A N/A MISG        N/A
$$

TNZ008-025-027-028-033-062-065-066-050500-
NORTH MIDDLE TENNESSEE

CITY           SKY/WX    TMP DP  RH WIND       PRES   REMARKS
NASHVILLE      LGT RAIN  70  69  97 CALM      30.02F
CLARKSVILLE    CLOUDY    72  69  90 SW5       30.01R FOG
COOKEVILLE     CLOUDY    70  70 100 CALM      30.05R
CROSSVILLE     LGT RAIN  71  67  87 CALM      30.09R FOG
$$

TNZ061-075-076-078-094-096-097-050500-
SOUTH MIDDLE TENNESSEE

CITY           SKY/WX    TMP DP  RH WIND       PRES   REMARKS
WINCHESTER     CLOUDY    70  68  94 NW3       30.05S
SHELBYVILLE    MOCLDY    72  70  94 CALM        N/A
$$

TNZ017-018-042-046-047-050500-
NORTHEAST TENNESSEE

CITY           SKY/WX    TMP DP  RH WIND       PRES   REMARKS
TRI CITIES     CLOUDY    70  68  93 CALM      30.10S FOG
$$

TNZ012-013-036-069-073-074-050500-
CENTRAL EAST TENNESSEE

CITY           SKY/WX    TMP DP  RH WIND       PRES   REMARKS
KNOXVILLE      LGT RAIN  73  69  87 S5        30.05R
OAK RIDGE      LGT RAIN  73  70  90 CALM      30.07R
GATLINBURG     CLEAR     70  66  88 CALM      30.06S
$$

TNZ083-085-099-050500-
SOUTHEAST TENNESSEE

CITY           SKY/WX    TMP DP  RH WIND       PRES   REMARKS
CHATTANOOGA    LGT RAIN  72  69  90 SW5       30.05R FOG
$$

SKY/WX REPORTED AS FAIR MEANS FEW OR NO CLOUDS BELOW
12 THOUSAND FEET.



USA.gov is the U.S. government's official web portal to all federal, state and local government web resources and services.